Regional Weather Roundup
Issued by NWS

Home | Current Version | Previous Version | Graphics & Text | Print | Product List | Glossary On
Versions: 1 2 3 4 5 6 7 8 9 10 11 12 13 14 15 16 17 18 19 20 21 22 23 24 25 26 27 28 29 30 31 32 33 34 35 36 37 38 39 40 41 42 43 44 45 46 47 48 49 50
000
ASUS43 KMKX 172000
RWRWI

WISCONSIN REGIONAL WEATHER ROUNDUP
NATIONAL WEATHER SERVICE MILWAUKEE/SULLIVAN WI
300 PM CDT WED SEP 17 2014

NOTE: "FAIR" INDICATES FEW OR NO CLOUDS BELOW 12,000 FEET WITH NO
SIGNIFICANT WEATHER AND/OR OBSTRUCTIONS TO VISIBILITY.

WIZ001-002-006>008-014>016-023>028-172100-
NORTHWEST WISCONSIN

CITY           SKY/WX    TMP DP  RH WIND       PRES   REMARKS
SUPERIOR ARPT  CLOUDY    52  47  82 NE16G24   30.01R
ASHLAND        CLOUDY    52  46  80 NE16      30.03R
HAYWARD        MOSUNNY   70  45  40 N5        29.95S
SIREN          SUNNY     71  48  44 CALM      29.95F
RICE LAKE      PTSUNNY   71  49  45 N8        29.97S
LADYSMITH      CLOUDY    71  50  48 W5        29.97S
EAU CLAIRE     NOT AVBL
MENOMONIE      PTCLDY    72  51  48 S6        29.95F
NEW RICHMOND   MOSUNNY   71  50  47 NE3       29.95S
OSCEOLA        SUNNY     71  51  49 N5        29.97F
$$

WIZ003>005-009-010-017-018-172100-
NORTH CENTRAL WISCONSIN

CITY           SKY/WX    TMP DP  RH WIND       PRES   REMARKS
WOODRUFF       SUNNY     68  46  45 NW6       29.94F
RHINELANDER    SUNNY     68  44  42 NW9       29.96S
EAGLE RIVER    SUNNY     66  41  39 NW9       29.94S
LAND O LAKES   PTSUNNY   66  46  47 N9        29.95S
PHILLIPS       PTSUNNY   67  50  53 NW3       29.95S
TOMAHAWK       MOSUNNY   65  47  50 CALM      29.95F
MEDFORD        CLOUDY    67  49  51 SW7       29.96S
MERRILL        PTSUNNY   70  50  50 NW8       29.95S
$$

WIZ029-030-035-036-043>047-172100-
CENTRAL WISCONSIN

CITY           SKY/WX    TMP DP  RH WIND       PRES   REMARKS
WAUSAU         CLOUDY    67  48  50 NW10      29.94S
MOSINEE        PTSUNNY   70  52  52 W12G18    29.97S
MARSHFIELD     MOSUNNY   70  51  51 W6        29.96F
STEVENS POINT  SUNNY     66  48  51 SW10      29.97S
WAUPACA        SUNNY     71  47  42 W8        29.96S
WAUTOMA        NOT AVBL
WISC RAPIDS    SUNNY     70  47  43 W3        29.98S
CAMP DOUGLAS   NOT AVBL
$$

WIZ011>013-019>022-031-037>040-048>050-172100-
NORTHEAST WISCONSIN

CITY           SKY/WX    TMP DP  RH WIND       PRES   REMARKS
ANTIGO         MOSUNNY   67  49  52 W9        29.95S
STURGEON BAY   MOSUNNY   66  48  52 W7        29.94F
GREEN BAY      PTSUNNY   68  49  50 SW10      29.95S
MANITOWOC      NOT AVBL
APPLETON       PTSUNNY   66  45  45 W10       29.96F
CLINTONVILLE   CLOUDY    68  45  42 NW5       29.94S
OSHKOSH        MOSUNNY   69  50  50 SW8       29.96F
$$

WIZ032>034-041-042-053>061-172100-
SOUTHWEST WISCONSIN

CITY           SKY/WX    TMP DP  RH WIND       PRES   REMARKS
LA CROSSE      PTSUNNY   71  52  50 S10       29.95F
SPARTA         SUNNY     70  47  45 SW5       29.97F
VIROQUA        MOCLDY    68  49  50 S5        29.98F
BOSCOBEL       PTSUNNY   71  49  45 VRB6      29.97F
PRAIRIE DU CHI SUNNY     68  47  46 SE3       29.97F
PLATTEVILLE    FAIR      68  49  49 CALM      29.99F
$$

WIZ056-057-062-063-064-067-068-172100-
SOUTH CENTRAL WISCONSIN

CITY           SKY/WX    TMP DP  RH WIND       PRES   REMARKS
BARABOO/DELLS  PTSUNNY   69  46  43 SW6       29.98S
LONE ROCK      NOT AVBL
WATERTOWN      MOSUNNY   68  48  47 SW7       29.98F
MADISON        MOSUNNY   68  47  46 VRB6      29.98F
MIDDLETON      FAIR      69  46  42 NW6       29.99F
MONROE         MOSUNNY   68  48  49 S6        29.98F
JANESVILLE     MOSUNNY   70  46  43 SW6       29.98F
$$

WIZ051-052-058>065-066-070>072-172100-
SOUTHEAST WISCONSIN

CITY           SKY/WX    TMP DP  RH WIND       PRES   REMARKS
MILWAUKEE      PTSUNNY   69  44  40 W8        29.98F
WAUKESHA       MOSUNNY   66  45  45 W6        29.99F
MILWAUKEE/TIMM MOSUNNY   68  43  40 SW6       29.99F
RACINE         MOSUNNY   67  48  50 S10       30.00F
BURLINGTON     SUNNY     68  43  41 SW7       29.98F
KENOSHA        MOSUNNY   68  46  45 VRB3      29.99F
FOND DU LAC    CLOUDY    68  48  48 SW7       29.97F
SHEBOYGAN      MOSUNNY   69  46  43 W12       29.97F
WEST BEND      PTSUNNY   66  43  42 W6        29.98F
JUNEAU         SUNNY     67  48  50 W7        29.99F
$$

LSZ147-162-172100-
LAKE SUPERIOR

STATION/POSITION TIME  TEMP    WIND        PRES    WAVE
                       AIR SEA DIR/SP/G            HT/PER
                 (UTC) (F)     (DEG/KT/KT) (MB)    (FT/S)
W MID LAKE BUOY  1850   44 45   50/ 17/ 21 1017.2R   6/ 6
DEVILS ISLAND    1900   45      60/ 21/ 24 1017.8R
PORT WING        1940   52      40/ 22/ 25 1016.6R
SAXON HARBOR     1900   51      50/ 18/ 20 1016.3R
$$

LMZ867-665-643>646-172100-
LAKE MICHIGAN

STATION/POSITION TIME  TEMP    WIND        PRES    WAVE
                       AIR SEA DIR/SP/G            HT/PER
                 (UTC) (F)     (DEG/KT/KT) (MB)    (FT/S)
N MID LAKE BUOY  1850   58 59  210/ 14/ 16 1013.6F   1/ 4
NORTHPORT PIER   1900   68     260/  3/  9 1013.2F
SISTER BAY       1912          250/  8/  8   N/A
KEWAUNEE LAKESHO 1900   57     160/  7/ 14 1013.4F
SHEBOYGAN LAKESH 1900   57 49  140/ 11/ 13 1015.5F
PORT WASHINGTON  1940   64     200/  5/  8 1015.9S
ATWATER BUOY     1900   61     130/ 10/ 12 1016.5F
MILWAUKEE LAKESH 1900   60     130/ 12/ 14   N/A
S MID LAKE BUOY  1850   62 65  230/  6/  8 1016.5F   1/ 4
KENOSHA   LAKESH 1900   64     140/ 12/ 13 1015.6S
$$

TC  - TEMPERATURE IN CELSIUS
VSB - VISIBILITY IN STATUTE MILES
WCI - WIND CHILL INDEX
HX  - HEAT INDEX




USA.gov is the U.S. government's official web portal to all federal, state and local government web resources and services.